OKEAN-4
1 23317U 94066A   05138.84867611  .00000925  00000-0  11288-3 0 06298
2 23317 082.5384 284.7354 0021084 231.0078 128.9218 14.82147618571564
NOAA-14
1 23455U 94089A   05139.40984671  .00000277  00000-0  17110-3 0  6026
2 23455 099.0906 187.2668 0010260 085.7278 274.5071 14.13565275535433
SICH-1
1 23657U 95046A   05138.84818940  .00000847  00000-0  10547-3 0 04349
2 23657 082.5289 065.5856 0022909 216.4604 143.5001 14.81162968523616
NOAA-15
1 25338U 98030A   05139.27197309  .00000108  00000-0  64855-4 0   438
2 25338 098.5128 148.4877 0011815 084.3689 275.8858 14.24509281364630
RESURS
1 25394U 98043A   05138.91274003 -.00000002  00000-0  17848-4 0 00930
2 25394 098.5390 208.9551 0000865 196.9898 163.1251 14.24064800356280
FENGYUN1
1 25730U 99025A   05138.58221273 -.00000146  00000-0 -57088-4 0  4168
2 25730 098.6048 141.5503 0014360 181.7251 178.3874 14.11792475310331
OKEAN-0
1 25860U 99039A   05138.82565381  .00000287  00000-0  51692-4 0 04377
2 25860 097.7587 166.0094 0000809 066.7972 293.3247 14.73247338313689
NOAA-16
1 26536U 00055A   05138.24985915 -.00000045  00000-0 -32481-7 0  3543
2 26536 099.0124 096.5257 0011192 148.1808 212.0042 14.12237577239832
NOAA-17
1 27453U 02032A   05139.40351232  .00000098  00000-0  61815-4 0  3802
2 27453 098.6606 213.3505 0012876 136.5317 223.6887 14.23664551150747
HUBBLE
1 20580U 90037B   05138.97683684  .00001327  00000-0  91889-4 0 03426
2 20580 028.4665 099.1087 0003404 318.8644 041.1713 14.99717677625858
UARS
1 21701U 91063B   05138.81415816  .00000229  00000-0  35102-4 0  4433
2 21701 056.9812 309.1240 0003926 099.1419 261.0395 15.03828161749074
PO-34
1 25520U 98064B   05139.67756281  .00001385  00000-0  59843-4 0  1836
2 25520 028.4584 142.8897 0005217 275.1722 084.8269 15.16274349362254
ISS
1 25544U 98067A   05139.97995370  .00023015  00000-0  17667-3 0  5073
2 25544 051.6450 045.3877 0006385 141.5860 042.1436 15.71944204371248
WO-39
1 26061U 00004A   03303.41062303  .00002252  00000-0  75720-3 0  9734
2 26061 100.1904 047.3011 0034615 281.6926 078.0378 14.38082544197011
OO-38
1 26063U 00004C   05139.34536614  .00000064  00000-0  42212-4 0  3529
2 26063 100.2202 354.1087 0037195 136.1910 224.2218 14.35717815278156
NO-45
1 26932U 01043D   05138.83204437  .00000143  00000-0  88031-4 0 00362
2 26932 067.0584 303.0533 0007940 251.0717 108.9541 14.29484925189604
